Tampa Macdill AFB, FL

1:41 AM EDT on May 28, 2018 (GMT -0400)
MacDill Air Force Base

Weather History for KMCF - May, 2014

Change the Weather History Date:

Tuesday, May 13, 2014

  Actual Average Record
Temperature  
Mean Temperature 81 °F -  
Max Temperature 90 °F 85 °F 91 °F (1998)
Min Temperature 72 °F 67 °F 64 °F (2001)
Cooling Degree Days 16    
Growing Degree Days 31 (Base 50)    
Moisture  
Dew Point 72 °F    
Average Humidity 76    
Maximum Humidity 98    
Minimum Humidity 55    
Precipitation  
Precipitation 0.00 in - - ()
Sea Level Pressure  
Sea Level Pressure 30.05 in    
Wind  
Wind Speed 12 mph (ESE)    
Max Wind Speed 17 mph    
Max Gust Speed 24 mph    
Visibility 10 miles    
Events      
Averages and records for this station are not official NWS values.
T = Trace of Precipitation, MM = Missing Value Source: NWS Daily Summary

Daily Weather History Graph

Daily Weather History Graph

Search for Another Location

Airport or City:

Astronomy

May. 13, 2014 Rise Set
Actual Time 6:41 AM EDT 8:11 PM EDT
Civil Twilight 6:16 AM EDT 8:36 PM EDT
Nautical Twilight 5:46 AM EDT 9:07 PM EDT
Astronomical Twilight 5:14 AM EDT 9:38 PM EDT
Moon 7:17 PM EDT (5/13) 5:49 AM EDT (5/13)
Length of Visible Light 14h 20m
Length of Day
13h 29m
Waxing Gibbous, 98% of the Moon is Illuminated
May 13
Waxing Gibbous
May 14
Full
May 21
Last Quarter
May 28
New
Jun 5
First Quarter

Hourly Weather History & Observations

Time (EDT) Temp. Heat Index Dew Point Humidity Pressure Visibility Wind Dir Wind Speed Gust Speed Precip Events Conditions
12:58 AM 74.7 °F - 71.2 °F 89% 30.08 in 10.0 mi ESE 10.4 mph - 0.00 in   Clear
1:58 AM 73.9 °F - 71.8 °F 93% 30.07 in 10.0 mi ESE 11.5 mph - N/A   Clear
2:58 AM 73.8 °F - 72.0 °F 94% 30.05 in 10.0 mi East 11.5 mph - N/A   Clear
3:58 AM 73.2 °F - 72.0 °F 96% 30.05 in 10.0 mi ESE 11.5 mph - N/A   Clear
4:58 AM 72.9 °F - 72.0 °F 97% 30.05 in 10.0 mi East 11.5 mph - N/A   Clear
5:58 AM 72.9 °F - 72.0 °F 97% 30.06 in 10.0 mi East 10.4 mph - N/A   Clear
6:58 AM 72.9 °F - 72.3 °F 98% 30.07 in 10.0 mi ESE 11.5 mph - N/A   Clear
7:58 AM 74.8 °F - 72.7 °F 93% 30.08 in 10.0 mi East 12.7 mph - N/A   Clear
9:58 AM 81.1 °F 85.4 °F 71.8 °F 73% 30.08 in 10.0 mi ESE 15.0 mph - N/A   Clear
10:58 AM 83.7 °F 88.6 °F 71.1 °F 66% 30.09 in 10.0 mi ESE 13.8 mph - N/A   Clear
11:58 AM 86.2 °F 92.2 °F 71.8 °F 62% 30.09 in 10.0 mi SE 11.5 mph - N/A   Clear
12:58 PM 88.0 °F 94.7 °F 72.0 °F 59% 30.07 in 10.0 mi SE 13.8 mph - N/A   Partly Cloudy
1:58 PM 88.9 °F 94.7 °F 70.9 °F 55% 30.06 in 10.0 mi ESE 9.2 mph - N/A   Mostly Cloudy
2:58 PM 90.7 °F 98.5 °F 72.7 °F 55% 30.03 in 10.0 mi SE 12.7 mph 18.4 mph N/A   Partly Cloudy
3:58 PM 90.5 °F 98.6 °F 72.9 °F 56% 30.01 in 10.0 mi ESE 16.1 mph 23.0 mph N/A   Clear
4:58 PM 90.0 °F 97.4 °F 72.5 °F 56% 30.00 in 10.0 mi ESE 13.8 mph - N/A   Clear
5:58 PM 87.4 °F 94.0 °F 71.8 °F 60% 29.99 in 10.0 mi ESE 16.1 mph - 0.00 in   Clear
6:58 PM 85.5 °F 91.5 °F 72.1 °F 64% 29.99 in 10.0 mi East 15.0 mph - N/A   Partly Cloudy
7:58 PM 83.7 °F 88.9 °F 71.8 °F 67% 30.00 in 10.0 mi ESE 17.3 mph 24.2 mph N/A   Clear
8:58 PM 81.9 °F 86.6 °F 72.1 °F 72% 30.02 in 10.0 mi ESE 9.2 mph 19.6 mph N/A   Partly Cloudy
9:58 PM 80.4 °F 84.8 °F 73.0 °F 78% 30.05 in 10.0 mi ESE 12.7 mph - N/A   Partly Cloudy
10:58 PM 79.2 °F - 72.9 °F 81% 30.07 in 10.0 mi ESE 13.8 mph - N/A   Partly Cloudy
11:58 PM 77.7 °F - 73.4 °F 86% 30.06 in 10.0 mi ESE 16.1 mph - N/A   Clear